Home   Weather   New Orleans   Past weeks

Flag for USA Past Weather in New Orleans, Louisiana, USA — Yesterday and Last 2 Weeks

78 °F


Feels Like: 80 °F
Forecast: 61 / 80 °F
Wind: 9 mph from East

Location: Lakefront Airport

Current Time: Oct 26, 2016 at 6:29:14 PM

Latest Report: Oct 26, 2016 at 5:53 PM

Visibility: 10 mi

Pressure: 30.13 "Hg

Humidity: 62%

Dew Point: 64 °F

Location of New OrleansLocation

Past Weather in New Orleans — Graph


New Orleans Temperature Yesterday

Maximum temperature yesterday: 81 °F (at 3:53 PM)
Minimum temperature yesterday: 64 °F (at 12:53 AM)
Average temperature yesterday: 72 °F

High & Low Weather Summary for the Past Weeks

High86 °F (Oct 20, 1:53 PM)91% (Oct 17, 3:53 AM)30.31 "Hg (Oct 17, 3:53 AM)
Low57 °F (Oct 23, 3:53 AM)23% (Oct 23, 12:53 PM)29.87 "Hg (Oct 17, 4:53 PM)
Average75 °F67%30.09 "Hg
* Reported Oct 11 4:53 PM — Oct 26 4:53 PM, New Orleans, Weather by CustomWeather, © 2016

Note: Actual official high and low records may vary slightly from our data, if they occured in-between our weather recording intervals... More about our weather records


New Orleans Weather History for the Previous 24 Hours

Scroll right to see more
Time TempWeatherWind HumidityBarometerVisibility
4:53 PM
Wed, Oct 26
80 °FPartly sunny.8 mph58%30.13 "Hg10 mi
3:53 PM82 °FPartly sunny.8 mph49%30.13 "Hg10 mi
2:53 PM82 °FPassing clouds.8 mph49%30.14 "Hg10 mi
1:53 PM82 °FPartly sunny.10 mph48%30.15 "Hg10 mi
12:53 PM82 °FSunny.8 mph49%30.17 "Hg10 mi
11:53 AM77 °FSunny.12 mph64%30.19 "Hg10 mi
10:53 AM77 °FSunny.9 mph58%30.19 "Hg10 mi
9:53 AM74 °FSunny.9 mph56%30.19 "Hg10 mi
8:53 AM70 °FPassing clouds.12 mph71%30.19 "Hg10 mi
7:53 AM69 °FSunny.12 mph76%30.18 "Hg10 mi
6:53 AM69 °FClear.10 mph81%30.16 "Hg10 mi
5:53 AM70 °FClear.7 mph81%30.15 "Hg10 mi
4:53 AM71 °FClear.6 mph81%30.15 "Hg10 mi
3:53 AM71 °FPassing clouds.5 mph76%30.14 "Hg10 mi
2:53 AM69 °FClear.3 mph76%30.15 "Hg10 mi
1:53 AM66 °FClear.6 mph81%30.16 "Hg10 mi
12:53 AM66 °FClear.3 mph75%30.16 "Hg10 mi
11:53 PM
Tue, Oct 25
66 °FClear.5 mph75%30.16 "Hg10 mi
10:53 PM66 °FClear.5 mph73%30.17 "Hg10 mi
9:53 PM68 °FClear.5 mph70%30.17 "Hg10 mi
8:53 PM69 °FClear.6 mph66%30.16 "Hg10 mi
7:53 PM70 °FClear.8 mph61%30.15 "Hg10 mi
6:53 PM73 °FClear.7 mph51%30.14 "Hg10 mi
Weather by CustomWeather, © 2016

See weather overviewHow to use our weather pages